sat.trackr.live / text

‹ back to catalog

STARLINK-3961

NORAD 52637 · 2022-052AR

PAYLOAD ACTIVE UNKNOWN

§ Identity

Operator
Country
US
Launch date
2022-05-14
Launch site
AFETR
Launch vehicle
Mass (kg)
RCS (m²)

Purposes: comms

External: N2YO · Heavens-Above · Gunter

§ Orbital elements

Epoch: 2026-09-20T03:12:35.518752Z

Period
94.01 min
Inclination
53.1600°
Eccentricity
0.0001240
Mean motion
15.31702377 rev/d
Perigee alt
469.9 km
Apogee alt
471.6 km
Semi-major
6,848.9 km
B*
4.7720e-5
RAAN
92.7092°
Arg perigee
81.1047°
Mean anomaly
279.0095°
Rev number
24,147

§ Raw data

STARLINK-39611 52637U 22052AR  26263.13374443  .00001116  00000+0  47720-4 0  99942 52637  53.1600  92.7092 0001240  81.1047 279.0095 15.31702377241473

JSON: /api/v1/satellites/52637 · /tle

For live sub-satellite position, see the globe view (requires WebGL).

§ Visibility from observer

Set your observer location to see the next 7 days of passes ≥ 10°. The values pass through the URL so the page stays shareable.

No JS? Fill the form by hand. The geolocation button needs JavaScript.